DAL1949 MYNN-KATL

Flight info

Callsign DAL1949
Flight time 1h 51m
Altitude 36000
Route PEACH Y421 OCTAL Q77 MJAMS/N0465F350 Q77 SHRKS/N0464F360 DCT LAIRI DCT LARZZ JJEDI4
Aircraft B738/M-SDE2E3FGHIRWXY/LB1

Departure

Time 2026-05-07 22:19
Airport Lynden Pindling International Airport (MYNN)

Arrival

Time 2026-05-08 00:10
Airport Hartsfield Jackson Atlanta International Airport (KATL)
Time Latitude Longitude Altitude Speed Heading
2026-05-07 21:56 25.05062 -77.46845 23 ft 0 kts 347°
2026-05-07 22:09 25.05054 -77.46842 23 ft 2 kts 347°
2026-05-07 22:09 25.05040 -77.46839 23 ft 2 kts 347°
2026-05-07 22:09 25.05030 -77.46837 23 ft 2 kts 347°
2026-05-07 22:09 25.05017 -77.46828 23 ft 2 kts 308°
2026-05-07 22:10 25.05011 -77.46813 23 ft 2 kts 276°
2026-05-07 22:10 25.05012 -77.46800 23 ft 0 kts 250°
2026-05-07 22:10 25.05014 -77.46793 23 ft 1 kts 245°
2026-05-07 22:10 25.05015 -77.46792 23 ft 0 kts 246°
2026-05-07 22:13 25.05014 -77.46795 23 ft 2 kts 246°
2026-05-07 22:14 25.04986 -77.46868 23 ft 12 kts 247°
2026-05-07 22:14 25.04931 -77.46928 23 ft 10 kts 205°
2026-05-07 22:14 25.04918 -77.47006 23 ft 12 kts 299°
2026-05-07 22:14 25.04982 -77.47084 23 ft 14 kts 315°
2026-05-07 22:15 25.05057 -77.47167 23 ft 16 kts 314°
2026-05-07 22:15 25.05144 -77.47263 23 ft 18 kts 314°
2026-05-07 22:15 25.05222 -77.47369 23 ft 15 kts 287°
2026-05-07 22:15 25.05225 -77.47417 23 ft 0 kts 259°
2026-05-07 22:17 25.05224 -77.47418 23 ft 2 kts 259°
2026-05-07 22:17 25.05209 -77.47468 23 ft 11 kts 250°
2026-05-07 22:17 25.05151 -77.47523 23 ft 12 kts 156°
2026-05-07 22:17 25.05129 -77.47504 23 ft 0 kts 132°
2026-05-07 22:18 25.04728 -77.47058 23 ft 103 kts 135°
2026-05-07 22:18 25.04079 -77.46335 24 ft 158 kts 135°
2026-05-07 22:19 25.03201 -77.45370 170 ft 189 kts 136°
2026-05-07 22:19 25.02261 -77.44384 887 ft 187 kts 137°
2026-05-07 22:19 25.01339 -77.43471 1720 ft 179 kts 135°
2026-05-07 22:19 25.00627 -77.42288 2146 ft 195 kts 107°
2026-05-07 22:20 25.00513 -77.40759 2639 ft 209 kts 83°
2026-05-07 22:20 25.00948 -77.39202 3089 ft 224 kts 61°
2026-05-07 22:20 25.01894 -77.37766 3536 ft 239 kts 49°
2026-05-07 22:20 25.03021 -77.36334 4144 ft 247 kts 49°
2026-05-07 22:21 25.04138 -77.34877 4787 ft 255 kts 50°
2026-05-07 22:21 25.05266 -77.33342 5513 ft 263 kts 51°
2026-05-07 22:21 25.06415 -77.31763 6197 ft 272 kts 50°
2026-05-07 22:21 25.07773 -77.30283 6883 ft 280 kts 35°
2026-05-07 22:22 25.09520 -77.29388 7695 ft 281 kts 13°
2026-05-07 22:22 25.11470 -77.29224 8514 ft 282 kts 356°
2026-05-07 22:22 25.13387 -77.29572 9277 ft 285 kts 344°
2026-05-07 22:22 25.15163 -77.30537 9980 ft 291 kts 322°
2026-05-07 22:23 25.16555 -77.32207 10574 ft 301 kts 306°
2026-05-07 22:23 25.17718 -77.34171 10985 ft 316 kts 304°
2026-05-07 22:23 25.18923 -77.36269 11337 ft 332 kts 304°
2026-05-07 22:23 25.20205 -77.38482 11693 ft 347 kts 304°
2026-05-07 22:24 25.21556 -77.40789 12080 ft 360 kts 304°
2026-05-07 22:24 25.22926 -77.43117 12692 ft 365 kts 304°
2026-05-07 22:24 25.24312 -77.45470 13348 ft 368 kts 304°
2026-05-07 22:24 25.25701 -77.47830 14023 ft 370 kts 304°
2026-05-07 22:25 25.27104 -77.50214 14690 ft 372 kts 304°
2026-05-07 22:25 25.28516 -77.52615 15354 ft 374 kts 304°
2026-05-07 22:25 25.29920 -77.55004 16022 ft 376 kts 304°
2026-05-07 22:25 25.31348 -77.57436 16679 ft 378 kts 304°
2026-05-07 22:26 25.32775 -77.59869 17300 ft 380 kts 304°
2026-05-07 22:26 25.34218 -77.62327 17875 ft 383 kts 304°
2026-05-07 22:26 25.35660 -77.64784 18431 ft 386 kts 304°
2026-05-07 22:26 25.37117 -77.67271 19047 ft 387 kts 304°
2026-05-07 22:27 25.38587 -77.69780 19576 ft 390 kts 303°
2026-05-07 22:27 25.40053 -77.72281 20099 ft 393 kts 303°
2026-05-07 22:27 25.41537 -77.74815 20607 ft 396 kts 303°
2026-05-07 22:27 25.43032 -77.77371 21144 ft 398 kts 303°
2026-05-07 22:28 25.44529 -77.79977 21637 ft 401 kts 302°
2026-05-07 22:28 25.46001 -77.82605 22175 ft 403 kts 302°
2026-05-07 22:28 25.47457 -77.85232 22649 ft 405 kts 301°
2026-05-07 22:28 25.48937 -77.87914 23209 ft 406 kts 301°
2026-05-07 22:29 25.50396 -77.90556 23683 ft 408 kts 301°
2026-05-07 22:29 25.51888 -77.93255 24142 ft 411 kts 301°
2026-05-07 22:29 25.53383 -77.95957 24555 ft 415 kts 301°
2026-05-07 22:29 25.54881 -77.98661 24996 ft 417 kts 302°
2026-05-07 22:30 25.56407 -78.01417 25428 ft 420 kts 302°
2026-05-07 22:30 25.57925 -78.04156 25875 ft 422 kts 302°
2026-05-07 22:30 25.59459 -78.06923 26288 ft 424 kts 302°
2026-05-07 22:30 25.61011 -78.09725 26675 ft 427 kts 302°
2026-05-07 22:31 25.62573 -78.12547 27105 ft 429 kts 302°
2026-05-07 22:31 25.64129 -78.15359 27496 ft 431 kts 302°
2026-05-07 22:31 25.65680 -78.18163 27915 ft 433 kts 302°
2026-05-07 22:31 25.67261 -78.21024 28270 ft 436 kts 302°
2026-05-07 22:32 25.68833 -78.23871 28651 ft 437 kts 302°
2026-05-07 22:32 25.70430 -78.26764 29003 ft 440 kts 302°
2026-05-07 22:32 25.72018 -78.29643 29375 ft 442 kts 302°
2026-05-07 22:32 25.73623 -78.32555 29754 ft 443 kts 302°
2026-05-07 22:33 25.75223 -78.35461 30324 ft 440 kts 302°
2026-05-07 22:33 25.76805 -78.38335 30832 ft 438 kts 302°
2026-05-07 22:33 25.78393 -78.41221 31245 ft 437 kts 301°
2026-05-07 22:33 25.79959 -78.44070 31662 ft 437 kts 301°
2026-05-07 22:34 25.81537 -78.46941 32070 ft 436 kts 301°
2026-05-07 22:34 25.83113 -78.49812 32494 ft 435 kts 301°
2026-05-07 22:34 25.84685 -78.52678 32867 ft 434 kts 301°
2026-05-07 22:34 25.86233 -78.55501 33294 ft 433 kts 301°
2026-05-07 22:35 25.87795 -78.58351 33767 ft 431 kts 301°
2026-05-07 22:35 25.89343 -78.61177 34189 ft 429 kts 301°
2026-05-07 22:35 25.90846 -78.64057 34571 ft 428 kts 297°
2026-05-07 22:35 25.92071 -78.67066 34965 ft 427 kts 291°
2026-05-07 22:36 25.92971 -78.70203 35394 ft 426 kts 285°
2026-05-07 22:36 25.93536 -78.73388 35754 ft 426 kts 279°
2026-05-07 22:36 25.93774 -78.76648 36009 ft 428 kts 273°
2026-05-07 22:37 25.93584 -78.83287 36023 ft 430 kts 269°
2026-05-07 22:37 25.93240 -78.89909 36026 ft 429 kts 269°
2026-05-07 22:38 25.93028 -78.96528 36029 ft 429 kts 271°
2026-05-07 22:38 25.92923 -79.03179 36026 ft 429 kts 271°
2026-05-07 22:39 25.92867 -79.09763 36020 ft 428 kts 271°
2026-05-07 22:39 25.92824 -79.16386 36024 ft 428 kts 271°
2026-05-07 22:40 25.92781 -79.22982 36025 ft 428 kts 271°
2026-05-07 22:40 25.92735 -79.29572 36015 ft 428 kts 271°
2026-05-07 22:41 25.92685 -79.36163 36013 ft 428 kts 271°
2026-05-07 22:41 25.92633 -79.42776 36007 ft 429 kts 271°
2026-05-07 22:42 25.92577 -79.49382 36012 ft 428 kts 271°
2026-05-07 22:42 25.92518 -79.55984 36005 ft 429 kts 271°
2026-05-07 22:43 25.92457 -79.62560 36000 ft 428 kts 271°
2026-05-07 22:43 25.92391 -79.69198 36003 ft 428 kts 271°
2026-05-07 22:44 25.92451 -79.75742 35995 ft 426 kts 276°
2026-05-07 22:44 25.93883 -79.82066 35999 ft 424 kts 294°
2026-05-07 22:45 25.96735 -79.87830 35993 ft 425 kts 301°
2026-05-07 22:45 25.99870 -79.93363 35997 ft 425 kts 302°
2026-05-07 22:46 26.03049 -79.98904 35994 ft 426 kts 302°
2026-05-07 22:46 26.06197 -80.04446 35993 ft 425 kts 301°
2026-05-07 22:47 26.09339 -80.10030 35992 ft 425 kts 301°
2026-05-07 22:47 26.12519 -80.15576 35992 ft 425 kts 304°
2026-05-07 22:48 26.16599 -80.20295 35995 ft 428 kts 323°
2026-05-07 22:48 26.21874 -80.23415 35994 ft 433 kts 334°
2026-05-07 22:49 26.27481 -80.25944 35994 ft 433 kts 335°
2026-05-07 22:49 26.33094 -80.28344 35994 ft 433 kts 336°
2026-05-07 22:50 26.38732 -80.30769 35994 ft 433 kts 335°
2026-05-07 22:50 26.44347 -80.33214 35996 ft 432 kts 335°
2026-05-07 22:51 26.49917 -80.35661 35992 ft 432 kts 335°
2026-05-07 22:51 26.55541 -80.38144 35994 ft 432 kts 335°
2026-05-07 22:52 26.61125 -80.40615 35991 ft 433 kts 335°
2026-05-07 22:52 26.66719 -80.43094 35991 ft 432 kts 335°
2026-05-07 22:53 26.72308 -80.45573 35992 ft 433 kts 335°
2026-05-07 22:53 26.77902 -80.48058 35987 ft 432 kts 335°
2026-05-07 22:54 26.83500 -80.50546 35983 ft 431 kts 335°
2026-05-07 22:54 26.89086 -80.53033 35988 ft 432 kts 335°
2026-05-07 22:55 26.94642 -80.55509 35989 ft 432 kts 335°
2026-05-07 22:55 27.00249 -80.58010 35984 ft 433 kts 334°
2026-05-07 22:56 27.05814 -80.60494 35985 ft 431 kts 334°
2026-05-07 22:56 27.11421 -80.63000 35981 ft 431 kts 334°
2026-05-07 22:57 27.16984 -80.65492 35980 ft 433 kts 334°
2026-05-07 22:57 27.22565 -80.67991 35978 ft 431 kts 334°
2026-05-07 22:58 27.28158 -80.70497 35976 ft 430 kts 334°
2026-05-07 22:58 27.33694 -80.72983 35973 ft 430 kts 334°
2026-05-07 22:59 27.39254 -80.75482 35967 ft 431 kts 334°
2026-05-07 22:59 27.44841 -80.77996 35968 ft 431 kts 333°
2026-05-07 23:00 27.50373 -80.80488 35964 ft 431 kts 333°
2026-05-07 23:00 27.55962 -80.83007 35966 ft 430 kts 333°
2026-05-07 23:01 27.61510 -80.85510 35965 ft 429 kts 333°
2026-05-07 23:01 27.67054 -80.88015 35961 ft 430 kts 333°
2026-05-07 23:02 27.72579 -80.90514 35958 ft 429 kts 333°
2026-05-07 23:02 27.78120 -80.93036 35955 ft 428 kts 332°
2026-05-07 23:03 27.83386 -80.96136 35956 ft 423 kts 322°
2026-05-07 23:03 27.88073 -81.00078 35953 ft 418 kts 317°
2026-05-07 23:04 27.92536 -81.04326 35954 ft 417 kts 315°
2026-05-07 23:04 27.96929 -81.08588 35952 ft 418 kts 315°
2026-05-07 23:05 28.01362 -81.12836 35951 ft 419 kts 317°
2026-05-07 23:05 28.06252 -81.16512 35954 ft 425 kts 327°
2026-05-07 23:06 28.11611 -81.19434 35959 ft 427 kts 330°
2026-05-07 23:06 28.17049 -81.22156 35963 ft 427 kts 331°
2026-05-07 23:07 28.22508 -81.24890 35965 ft 426 kts 330°
2026-05-07 23:07 28.27894 -81.27626 35969 ft 426 kts 330°
2026-05-07 23:08 28.33320 -81.30411 35973 ft 427 kts 330°
2026-05-07 23:08 28.38771 -81.33210 35972 ft 426 kts 330°
2026-05-07 23:09 28.44183 -81.35969 35969 ft 425 kts 330°
2026-05-07 23:09 28.49582 -81.38724 35973 ft 426 kts 330°
2026-05-07 23:10 28.54984 -81.41488 35973 ft 426 kts 330°
2026-05-07 23:10 28.60413 -81.44271 35972 ft 426 kts 330°
2026-05-07 23:11 28.65787 -81.47028 35971 ft 426 kts 330°
2026-05-07 23:11 28.71182 -81.49801 35974 ft 425 kts 329°
2026-05-07 23:12 28.76576 -81.52576 35976 ft 426 kts 329°
2026-05-07 23:12 28.82011 -81.55374 35978 ft 425 kts 329°
2026-05-07 23:13 28.87386 -81.58141 35979 ft 424 kts 330°
2026-05-07 23:13 28.92963 -81.60564 35979 ft 433 kts 339°
2026-05-07 23:14 28.98974 -81.61708 35978 ft 441 kts 347°
2026-05-07 23:14 29.05111 -81.62272 35968 ft 444 kts 349°
2026-05-07 23:15 29.11315 -81.62743 35968 ft 443 kts 349°
2026-05-07 23:15 29.17449 -81.63234 35965 ft 442 kts 348°
2026-05-07 23:16 29.23573 -81.63759 35959 ft 441 kts 348°
2026-05-07 23:16 29.29730 -81.64310 35963 ft 442 kts 348°
2026-05-07 23:17 29.35851 -81.64866 35957 ft 441 kts 347°
2026-05-07 23:17 29.41980 -81.65429 35960 ft 441 kts 347°
2026-05-07 23:18 29.48087 -81.65989 35956 ft 439 kts 347°
2026-05-07 23:18 29.54208 -81.66554 35955 ft 440 kts 347°
2026-05-07 23:19 29.60293 -81.67118 35955 ft 440 kts 347°
2026-05-07 23:19 29.66431 -81.67685 35961 ft 440 kts 347°
2026-05-07 23:20 29.72487 -81.68244 35969 ft 439 kts 347°
2026-05-07 23:20 29.78593 -81.68810 36020 ft 442 kts 346°
2026-05-07 23:20 29.81653 -81.69096 36423 ft 440 kts 347°
2026-05-07 23:21 29.84704 -81.69376 36923 ft 436 kts 346°
2026-05-07 23:21 29.87695 -81.69649 37335 ft 434 kts 346°
2026-05-07 23:21 29.90724 -81.69929 37660 ft 433 kts 346°
2026-05-07 23:21 29.93720 -81.70207 37927 ft 433 kts 346°
2026-05-07 23:22 29.96739 -81.70490 37961 ft 436 kts 346°
2026-05-07 23:22 30.02800 -81.71059 37960 ft 436 kts 346°
2026-05-07 23:23 30.08894 -81.71625 37961 ft 436 kts 346°
2026-05-07 23:23 30.14940 -81.72188 37958 ft 436 kts 346°
2026-05-07 23:24 30.21058 -81.72762 37958 ft 437 kts 346°
2026-05-07 23:24 30.27120 -81.73327 37957 ft 437 kts 346°
2026-05-07 23:25 30.33207 -81.73899 37955 ft 437 kts 346°
2026-05-07 23:25 30.39233 -81.74460 37954 ft 437 kts 346°
2026-05-07 23:26 30.45323 -81.75034 37945 ft 439 kts 346°
2026-05-07 23:26 30.51399 -81.75602 37944 ft 435 kts 346°
2026-05-07 23:27 30.60469 -81.76680 37941 ft 432 kts 340°
2026-05-07 23:27 30.66076 -81.78735 37936 ft 416 kts 328°
2026-05-07 23:28 30.71255 -81.81593 37935 ft 413 kts 325°
2026-05-07 23:28 30.76391 -81.84644 37931 ft 413 kts 324°
2026-05-07 23:29 30.81509 -81.87672 37932 ft 414 kts 324°
2026-05-07 23:29 30.86643 -81.90674 37930 ft 412 kts 324°
2026-05-07 23:30 30.91793 -81.93675 37934 ft 415 kts 325°
2026-05-07 23:30 30.96960 -81.96682 37927 ft 415 kts 324°
2026-05-07 23:31 31.02112 -81.99676 37928 ft 413 kts 324°
2026-05-07 23:31 31.07242 -82.02665 37927 ft 413 kts 324°
2026-05-07 23:32 31.12414 -82.05683 37928 ft 413 kts 324°
2026-05-07 23:32 31.17544 -82.08678 37928 ft 412 kts 324°
2026-05-07 23:33 31.22708 -82.11705 37929 ft 415 kts 324°
2026-05-07 23:33 31.27845 -82.14712 37930 ft 412 kts 324°
2026-05-07 23:34 31.32944 -82.17696 37935 ft 412 kts 324°
2026-05-07 23:34 31.38030 -82.20683 37933 ft 411 kts 323°
2026-05-07 23:35 31.43136 -82.23687 37933 ft 412 kts 323°
2026-05-07 23:35 31.48286 -82.26718 37934 ft 413 kts 323°
2026-05-07 23:36 31.53380 -82.29712 37933 ft 409 kts 323°
2026-05-07 23:36 31.58488 -82.32726 37935 ft 412 kts 323°
2026-05-07 23:37 31.63585 -82.35738 37933 ft 409 kts 323°
2026-05-07 23:37 31.68697 -82.38760 37933 ft 412 kts 323°
2026-05-07 23:38 31.73806 -82.41782 37926 ft 409 kts 323°
2026-05-07 23:38 31.78897 -82.44800 37920 ft 410 kts 323°
2026-05-07 23:39 31.84004 -82.47828 37920 ft 409 kts 323°
2026-05-07 23:39 31.89073 -82.50837 37918 ft 409 kts 322°
2026-05-07 23:40 31.94112 -82.53934 37926 ft 406 kts 319°
2026-05-07 23:40 31.98695 -82.57641 37922 ft 393 kts 312°
2026-05-07 23:41 32.02868 -82.61730 37927 ft 391 kts 310°
2026-05-07 23:41 32.06972 -82.65938 37939 ft 390 kts 309°
2026-05-07 23:42 32.11029 -82.70106 37945 ft 387 kts 309°
2026-05-07 23:42 32.14862 -82.74036 37939 ft 386 kts 309°
2026-05-07 23:43 32.18897 -82.78172 37758 ft 381 kts 309°
2026-05-07 23:43 32.20899 -82.80216 37147 ft 380 kts 308°
2026-05-07 23:43 32.22887 -82.82263 36098 ft 387 kts 308°
2026-05-07 23:44 32.24922 -82.84364 35191 ft 390 kts 309°
2026-05-07 23:44 32.26973 -82.86473 34467 ft 389 kts 309°
2026-05-07 23:44 32.29019 -82.88572 33788 ft 387 kts 309°
2026-05-07 23:44 32.31047 -82.90649 33107 ft 387 kts 309°
2026-05-07 23:45 32.33097 -82.92752 32465 ft 386 kts 309°
2026-05-07 23:45 32.35114 -82.94827 31782 ft 387 kts 309°
2026-05-07 23:45 32.37122 -82.96896 31072 ft 387 kts 309°
2026-05-07 23:45 32.39155 -82.98993 30380 ft 387 kts 310°
2026-05-07 23:46 32.41169 -83.01063 29968 ft 385 kts 310°
2026-05-07 23:46 32.43206 -83.03165 29489 ft 392 kts 310°
2026-05-07 23:46 32.45238 -83.05260 28994 ft 389 kts 310°
2026-05-07 23:46 32.47279 -83.07355 28496 ft 384 kts 310°
2026-05-07 23:47 32.49269 -83.09397 28008 ft 378 kts 310°
2026-05-07 23:47 32.51250 -83.11431 27517 ft 373 kts 310°
2026-05-07 23:47 32.53188 -83.13425 27044 ft 367 kts 310°
2026-05-07 23:47 32.55092 -83.15391 26583 ft 367 kts 310°
2026-05-07 23:48 32.57029 -83.17404 26092 ft 372 kts 310°
2026-05-07 23:48 32.58958 -83.19406 25599 ft 371 kts 310°
2026-05-07 23:48 32.60901 -83.21417 25109 ft 366 kts 310°
2026-05-07 23:48 32.62785 -83.23365 24636 ft 361 kts 310°
2026-05-07 23:49 32.64670 -83.25314 24165 ft 355 kts 310°
2026-05-07 23:49 32.66520 -83.27232 23690 ft 350 kts 310°
2026-05-07 23:49 32.68344 -83.29127 23221 ft 348 kts 309°
2026-05-07 23:49 32.70158 -83.31023 22754 ft 353 kts 310°
2026-05-07 23:50 32.72008 -83.32962 22260 ft 354 kts 310°
2026-05-07 23:50 32.73836 -83.34865 21788 ft 349 kts 310°
2026-05-07 23:50 32.75653 -83.36753 21312 ft 344 kts 310°
2026-05-07 23:50 32.77419 -83.38586 20857 ft 338 kts 310°
2026-05-07 23:51 32.79182 -83.40421 20388 ft 333 kts 310°
2026-05-07 23:51 32.80913 -83.42225 19938 ft 330 kts 309°
2026-05-07 23:51 32.82639 -83.44033 19469 ft 335 kts 309°
2026-05-07 23:51 32.84402 -83.45891 18993 ft 338 kts 309°
2026-05-07 23:52 32.86133 -83.47706 18518 ft 334 kts 309°
2026-05-07 23:52 32.87876 -83.49526 18047 ft 329 kts 309°
2026-05-07 23:52 32.89574 -83.51302 17609 ft 324 kts 309°
2026-05-07 23:52 32.91249 -83.53062 17145 ft 322 kts 309°
2026-05-07 23:53 32.92917 -83.54824 16693 ft 325 kts 309°
2026-05-07 23:53 32.94593 -83.56592 16352 ft 319 kts 310°
2026-05-07 23:53 32.96245 -83.58315 16058 ft 311 kts 310°
2026-05-07 23:53 32.97851 -83.59993 15570 ft 308 kts 310°
2026-05-07 23:54 32.99448 -83.61666 15117 ft 303 kts 310°
2026-05-07 23:54 33.01011 -83.63303 14694 ft 299 kts 310°
2026-05-07 23:54 33.02552 -83.64919 14265 ft 294 kts 311°
2026-05-07 23:54 33.04098 -83.66541 13846 ft 290 kts 310°
2026-05-07 23:55 33.05604 -83.68124 13425 ft 286 kts 310°
2026-05-07 23:55 33.07076 -83.69673 13015 ft 283 kts 310°
2026-05-07 23:55 33.08561 -83.71240 12618 ft 287 kts 311°
2026-05-07 23:55 33.10066 -83.72831 12254 ft 290 kts 311°
2026-05-07 23:56 33.11514 -83.74348 12049 ft 280 kts 311°
2026-05-07 23:56 33.12962 -83.75853 11955 ft 266 kts 311°
2026-05-07 23:56 33.14333 -83.77287 11750 ft 258 kts 311°
2026-05-07 23:56 33.15653 -83.78686 11380 ft 256 kts 311°
2026-05-07 23:57 33.16972 -83.80088 11036 ft 254 kts 311°
2026-05-07 23:57 33.18286 -83.81482 10701 ft 251 kts 311°
2026-05-07 23:57 33.19572 -83.82873 10374 ft 248 kts 310°
2026-05-07 23:57 33.20821 -83.84344 10075 ft 253 kts 309°
2026-05-07 23:58 33.22026 -83.85808 9900 ft 245 kts 309°
2026-05-07 23:58 33.23230 -83.87262 9569 ft 243 kts 309°
2026-05-07 23:58 33.24418 -83.88685 9251 ft 241 kts 309°
2026-05-07 23:58 33.25585 -83.90073 8948 ft 238 kts 309°
2026-05-07 23:59 33.26757 -83.91470 8637 ft 236 kts 309°
2026-05-07 23:59 33.27922 -83.92860 8338 ft 240 kts 310°
2026-05-07 23:59 33.29107 -83.94280 8030 ft 242 kts 310°
2026-05-07 23:59 33.30316 -83.95628 7975 ft 239 kts 316°
2026-05-08 00:00 33.31715 -83.96788 7974 ft 248 kts 322°
2026-05-08 00:00 33.33195 -83.97871 7971 ft 248 kts 322°
2026-05-08 00:00 33.34661 -83.98959 7902 ft 245 kts 321°
2026-05-08 00:00 33.36097 -84.00063 7941 ft 246 kts 321°
2026-05-08 00:01 33.37537 -84.01186 7943 ft 247 kts 321°
2026-05-08 00:01 33.38953 -84.02300 7943 ft 245 kts 321°
2026-05-08 00:01 33.40395 -84.03441 7947 ft 246 kts 320°
2026-05-08 00:01 33.41818 -84.04566 7950 ft 245 kts 321°
2026-05-08 00:02 33.43236 -84.05682 7953 ft 245 kts 321°
2026-05-08 00:02 33.44662 -84.06792 7809 ft 239 kts 321°
2026-05-08 00:02 33.46040 -84.07869 7545 ft 240 kts 321°
2026-05-08 00:02 33.47454 -84.08993 7228 ft 246 kts 320°
2026-05-08 00:03 33.48877 -84.10126 6916 ft 243 kts 321°
2026-05-08 00:03 33.50283 -84.11241 6602 ft 241 kts 321°
2026-05-08 00:03 33.51678 -84.12346 6296 ft 239 kts 321°
2026-05-08 00:03 33.53056 -84.13445 6010 ft 243 kts 321°
2026-05-08 00:04 33.54469 -84.14577 5700 ft 241 kts 322°
2026-05-08 00:04 33.55837 -84.15662 5508 ft 234 kts 322°
2026-05-08 00:04 33.57240 -84.16668 5306 ft 228 kts 324°
2026-05-08 00:04 33.58669 -84.17410 5114 ft 228 kts 344°
2026-05-08 00:05 33.60263 -84.17548 4919 ft 225 kts 353°
2026-05-08 00:05 33.61786 -84.17524 4691 ft 217 kts 354°
2026-05-08 00:05 33.63231 -84.17760 4360 ft 204 kts 330°
2026-05-08 00:05 33.64156 -84.18932 3972 ft 196 kts 289°
2026-05-08 00:06 33.64173 -84.20554 3654 ft 197 kts 257°
2026-05-08 00:06 33.63579 -84.22028 3359 ft 197 kts 248°
2026-05-08 00:06 33.63180 -84.23563 3028 ft 190 kts 269°
2026-05-08 00:06 33.63163 -84.25081 3026 ft 172 kts 274°
2026-05-08 00:07 33.63174 -84.26508 3076 ft 172 kts 273°
2026-05-08 00:07 33.63170 -84.27953 3068 ft 173 kts 273°
2026-05-08 00:07 33.63167 -84.29372 3113 ft 171 kts 274°
2026-05-08 00:07 33.63174 -84.30841 2795 ft 179 kts 273°
2026-05-08 00:08 33.63173 -84.32255 2517 ft 161 kts 273°
2026-05-08 00:08 33.63174 -84.33524 2333 ft 146 kts 274°
2026-05-08 00:08 33.63178 -84.34734 2149 ft 145 kts 273°
2026-05-08 00:08 33.63178 -84.35941 1957 ft 144 kts 273°
2026-05-08 00:09 33.63177 -84.37146 1764 ft 144 kts 273°
2026-05-08 00:09 33.63183 -84.38341 1575 ft 144 kts 273°
2026-05-08 00:09 33.63184 -84.39532 1378 ft 143 kts 272°
2026-05-08 00:09 33.63183 -84.40739 1204 ft 142 kts 272°
2026-05-08 00:10 33.63181 -84.41908 1026 ft 140 kts 273°
2026-05-08 00:10 33.63184 -84.42988 1002 ft 106 kts 270°
2026-05-08 00:10 33.63184 -84.43609 1009 ft 64 kts 271°
2026-05-08 00:10 33.63197 -84.44049 1015 ft 37 kts 282°
2026-05-08 00:11 33.63266 -84.44245 1018 ft 14 kts 312°
2026-05-08 00:11 33.63349 -84.44241 1018 ft 7 kts 41°
2026-05-08 00:11 33.63366 -84.44224 1018 ft 1 kts 41°
2026-05-08 00:11 33.63404 -84.44197 1018 ft 13 kts 14°
2026-05-08 00:12 33.63500 -84.44193 1018 ft 13 kts
2026-05-08 00:12 33.63592 -84.44195 1019 ft 12 kts 359°
2026-05-08 00:12 33.63662 -84.44135 1019 ft 16 kts 82°
2026-05-08 00:12 33.63663 -84.43983 1017 ft 19 kts 90°
2026-05-08 00:13 33.63663 -84.43819 1015 ft 20 kts 90°
2026-05-08 00:13 33.63664 -84.43649 1014 ft 20 kts 89°
2026-05-08 00:13 33.63665 -84.43489 1012 ft 16 kts 90°
2026-05-08 00:13 33.63726 -84.43393 1011 ft 16 kts
2026-05-08 00:14 33.63836 -84.43392 1011 ft 14 kts
2026-05-08 00:14 33.63927 -84.43392 1011 ft 12 kts 360°
2026-05-08 00:14 33.63974 -84.43385 1011 ft 3 kts 54°
2026-05-08 00:14 33.63981 -84.43351 1011 ft 5 kts 88°
2026-05-08 00:15 33.63981 -84.43324 1011 ft 0 kts 90°